[[{"header":{"parameterUnit":"m.s-1","parameterCategory":2,"la1":30.2991,"la2":30.254,"lo1":-89.0895,"lo2":-89.0444,"dy":0.0017,"dx":0.0017,"nx":28,"ny":28,"refTime":"2025-07-10T09:00:00:Z","depth":"0","parameterNumber":2,"parameterNumberName":"U-component_of_CURRENTS"},"data":[0,0,0,0,0,0,0,0,0,0,0,0,0,0,0,0,0,0,0,0,0,0,0,0,0,0,0,0,0,0,0,0,0,0,0,0,0,0,0,0,0,0,0,0,0,0,0,0,0,0,0,0,0,0,0,0,0,0,0.2205,0.2205,0,0.222,0.222,0.2221,0.2213,0.2212,0.2212,0.2212,0.2213,0.2213,0.2213,0,0,0,0,0,0,0,0,0,0,0,0,0,0.219,0.219,0.2205,0.2205,0.2205,0.222,0.222,0.2221,0.2213,0.2212,0.2212,0.2212,0.2213,0.2213,0.2213,0,0,0,0,0,0,0,0,0,0,0,0,0,0.2199,0.219,0.2205,0.2204,0.2204,0.222,0.222,0.2221,0.2213,0.2212,0.2212,0.2211,0.2212,0.2213,0.2213,0.2226,0,0,0.2215,0.2215,0,0,0,0,0,0,0,0,0.2199,0.22,0.2204,0.2204,0.2204,0.2215,0.2216,0.2222,0.2213,0.2209,0.2212,0.2211,0.2213,0.2213,0.2216,0.2226,0.2226,0.2215,0.2215,0.2215,0.2216,0,0,0,0,0,0,0,0.2198,0.2199,0.221,0.2204,0.2204,0.221,0.2211,0.2217,0.2212,0.2209,0.2209,0.2212,0.2213,0.2216,0.2216,0.2226,0.2215,0.2215,0.2216,0.2216,0.2281,0.2282,0,0,0,0,0,0,0.2197,0.2198,0.221,0.2211,0.2201,0.2211,0.2211,0.2211,0.2213,0.2213,0.2212,0.2212,0.2215,0.2216,0.2216,0.2247,0.2215,0.2216,0.2216,0.2279,0.2281,0.2283,0,0,0,0,0,0,0.2197,0.2198,0.2209,0.2206,0.2208,0.2212,0.2212,0.2212,0.2216,0.2216,0.2215,0.2216,0.2215,0.2216,0.2231,0.2246,0.2216,0.2217,0.2278,0.228,0.2282,0.2298,0,0,0,0,0,0,0.2196,0.2198,0.2198,0.2206,0.2208,0.2218,0.2212,0.2213,0.2219,0.2218,0.2219,0.2218,0.2215,0.223,0.2231,0.2246,0.2217,0.2276,0.2279,0.2281,0.2296,0.2301,0.2305,0,0,0,0,0,0.2196,0.2196,0.2198,0.2199,0.2208,0.2218,0.222,0.2221,0.222,0.2222,0.223,0.2218,0.2248,0.2232,0.2233,0.2248,0.2275,0.2278,0.2281,0.2294,0.23,0.2305,0,0,0,0,0,0,0.2187,0.2195,0.2197,0.2199,0.2209,0.2217,0.222,0.2224,0.2233,0.2233,0.2231,0.2232,0.225,0.2253,0.2235,0.2278,0.2262,0.2265,0.2272,0.2277,0.2281,0.2274,0.2217,0,0,0,0,0,0.2187,0.2189,0.22,0.2201,0.2207,0.2216,0.2221,0.2224,0.2233,0.2236,0.2236,0.2248,0.2266,0.2273,0.2282,0.2304,0.2312,0.2319,0.2323,0.2327,0.2324,0.2377,0.2385,0.2293,0.2293,0.2293,0,0,0.2183,0.2189,0.2189,0.22,0.2207,0.2219,0.2217,0.2227,0.2238,0.2235,0.2246,0.2257,0.2275,0.2298,0.2308,0.2302,0.2354,0.2331,0.2334,0.2329,0.2381,0.239,0.2398,0.2295,0.2295,0.2295,0,0,0.2181,0.2184,0.2187,0.2197,0.2211,0.2221,0.2225,0.2236,0.2241,0.2263,0.2265,0.2289,0.2309,0.2325,0.2339,0.2378,0.2373,0.2382,0.24,0.2451,0.2459,0.2466,0.2468,0.2475,0.2388,0.2389,0.2389,0,0.2179,0.2181,0.219,0.22,0.2209,0.2223,0.2233,0.2246,0.2259,0.2276,0.2269,0.2321,0.2326,0.2371,0.2379,0.2386,0.2399,0.2374,0.2456,0.2463,0.247,0.2471,0.2478,0.239,0.239,0.2389,0.2389,0,0.2179,0.2185,0.2188,0.2205,0.222,0.2228,0.225,0.2266,0.228,0.23,0.2341,0.2356,0.2392,0.2399,0.2397,0.245,0.2436,0.2451,0.2438,0.248,0.2478,0.2486,0.2391,0.2391,0.2391,0.239,0,0,0.2162,0.2184,0.2183,0.2191,0.2221,0.223,0.2263,0.2297,0.2322,0.2348,0.2386,0.242,0.2434,0.245,0.2456,0.2491,0.2536,0.2487,0.2489,0.2479,0.2618,0.2534,0.2534,0.2571,0.2573,0.2574,0.2589,0,0.2158,0.2168,0.2187,0.2202,0.221,0.2242,0.227,0.2308,0.2343,0.2381,0.2423,0.2455,0.2454,0.2468,0.251,0.253,0.256,0.2528,0.2587,0.2588,0.2501,0.2542,0.2404,0.2401,0.2597,0.2598,0.2599,0,0.2147,0.2158,0.2168,0.2198,0.2206,0.2221,0.2272,0.2299,0.2371,0.2402,0.2461,0.2487,0.2538,0.2531,0.2604,0.2585,0.2602,0.2614,0.2616,0.2537,0.2519,0.2396,0.2407,0.2345,0.261,0.2609,0.2608,0,0.2116,0.214,0.2145,0.2154,0.2196,0.2213,0.224,0.2306,0.2345,0.2412,0.2459,0.2521,0.2561,0.2606,0.2634,0.2627,0.2704,0.2704,0.2642,0.2635,0.2526,0.2506,0.2475,0.2762,0.2762,0.2762,0.2762,0,0.2097,0.2098,0.2127,0.2128,0.2146,0.2186,0.2223,0.2264,0.2342,0.2396,0.2463,0.2515,0.2588,0.264,0.2653,0.2664,0.273,0.2642,0.2644,0.2525,0.2505,0.2453,0.2446,0.2763,0.2763,0.2762,0.2762,0,0.2058,0.2075,0.2082,0.2117,0.2129,0.214,0.221,0.2243,0.2322,0.2396,0.2421,0.253,0.2587,0.2639,0.2701,0.2684,0.2613,0.2687,0.2512,0.2491,0.2343,0.2342,0.2229,0.2176,0.2606,0.2604,0.2602,0,0.2038,0.2036,0.2061,0.2067,0.208,0.2111,0.2139,0.222,0.2265,0.2398,0.243,0.2519,0.2566,0.2618,0.2588,0.2581,0.2552,0.2451,0.2412,0.2311,0.2313,0.2237,0.2197,0.2268,0.2264,0.2261,0.2258,0,0.2005,0.2011,0.2017,0.2026,0.2044,0.2073,0.2118,0.2153,0.2255,0.2319,0.2398,0.2442,0.2491,0.242,0.2413,0.2395,0.2309,0.2378,0.2341,0.2095,0.1946,0.1902,0.2257,0.2228,0.2231,0.2233,0.2235,0.2236,0.1979,0.197,0.1977,0.1978,0.1997,0.2014,0.2015,0.2075,0.2127,0.2188,0.2293,0.2302,0.2284,0.2242,0.2209,0.2052,0.2098,0.1972,0.1992,0.1933,0.1836,0.2094,0.2029,0.2031,0.2033,0.2034,0.2035,0,0.194,0.1931,0.1931,0.1924,0.1913,0.1949,0.1982,0.1968,0.1978,0.2043,0.2086,0.2039,0.1954,0.1925,0.178,0.168,0.1616,0.1637,0.1517,0.1512,0.1795,0.1735,0.1521,0.1521,0.1521,0.1521,0.1521,0.1522,0.1923,0.1894,0.1882,0.1835,0.183,0.1791,0.1788,0.1775,0.1789,0.1744,0.1702,0.1721,0.1723,0.1608,0.1461,0.1426,0.135,0.124,0.1308,0.1525,0.1558,0.159,0.1531,0.1278,0.1278,0.0923,0.092,0.0919]},{"header":{"parameterUnit":"m.s-1","parameterCategory":2,"la1":30.2991,"la2":30.254,"lo1":-89.0895,"lo2":-89.0444,"dy":0.0017,"dx":0.0017,"nx":28,"ny":28,"refTime":"2025-07-10T09:00:00:Z","depth":"0","parameterNumber":3,"parameterNumberName":"V-component_of_CURRENTS"},"data":[0,0,0,0,0,0,0,0,0,0,0,0,0,0,0,0,0,0,0,0,0,0,0,0,0,0,0,0,0,0,0,0,0,0,0,0,0,0,0,0,0,0,0,0,0,0,0,0,0,0,0,0,0,0,0,0,0,0,0.0169,0.0169,0,0.0152,0.0152,0.0152,0.0136,0.0136,0.0136,0.0135,0.0107,0.0107,0.0106,0,0,0,0,0,0,0,0,0,0,0,0,0,0.0157,0.0157,0.0169,0.0169,0.0168,0.0152,0.0152,0.0152,0.0136,0.0136,0.0135,0.0135,0.0108,0.0107,0.0106,0,0,0,0,0,0,0,0,0,0,0,0,0,0.0153,0.0157,0.0169,0.0159,0.0158,0.0152,0.0152,0.0152,0.0136,0.0136,0.0135,0.0135,0.0108,0.0107,0.0106,0.0106,0,0,0.0103,0.0103,0,0,0,0,0,0,0,0,0.0153,0.0154,0.0161,0.016,0.0158,0.0146,0.0138,0.0136,0.0136,0.0144,0.0135,0.0135,0.012,0.0118,0.0115,0.0104,0.0103,0.0103,0.0103,0.0102,0.0102,0,0,0,0,0,0,0,0.0154,0.0154,0.0162,0.016,0.0159,0.0145,0.0145,0.0137,0.0133,0.0143,0.0142,0.0141,0.0119,0.0116,0.0114,0.0103,0.0103,0.0103,0.0102,0.0102,0.0092,0.0093,0,0,0,0,0,0,0.0159,0.0154,0.0162,0.0161,0.0156,0.0146,0.0145,0.015,0.0133,0.0131,0.0141,0.014,0.0117,0.0115,0.0113,0.0124,0.0102,0.0102,0.0101,0.0092,0.0092,0.0093,0,0,0,0,0,0,0.0158,0.016,0.0163,0.0157,0.0157,0.0146,0.0152,0.015,0.0149,0.0132,0.0129,0.0143,0.0117,0.0114,0.0114,0.0122,0.0101,0.01,0.0092,0.0092,0.0093,0.0138,0,0,0,0,0,0,0.0158,0.016,0.0164,0.0158,0.0157,0.0166,0.0152,0.015,0.0149,0.0147,0.0132,0.0129,0.0117,0.0116,0.0113,0.0121,0.01,0.0091,0.0092,0.0092,0.0136,0.014,0.0143,0,0,0,0,0,0.0158,0.0169,0.0165,0.0166,0.0164,0.0167,0.0165,0.0156,0.0149,0.0153,0.0144,0.013,0.0117,0.0115,0.0112,0.012,0.0091,0.0092,0.0092,0.0134,0.0139,0.0143,0,0,0,0,0,0,0.0165,0.0168,0.0163,0.0174,0.0172,0.0164,0.0166,0.016,0.0156,0.0153,0.0137,0.0134,0.0134,0.0121,0.012,0.0118,0.01,0.01,0.0133,0.0137,0.0141,0.0153,0.0099,0,0,0,0,0,0.0169,0.0178,0.0176,0.0183,0.0184,0.0176,0.0175,0.0169,0.0164,0.0162,0.0152,0.0141,0.0134,0.0132,0.0122,0.0125,0.0112,0.0126,0.0129,0.0132,0.014,0.0131,0.0135,0.0095,0.0095,0.0095,0,0,0.0172,0.0176,0.018,0.0185,0.0182,0.0193,0.0175,0.0177,0.0186,0.016,0.0168,0.0153,0.0137,0.014,0.0138,0.0131,0.0136,0.0133,0.0136,0.0142,0.0133,0.0136,0.014,0.0095,0.0095,0.0095,0,0,0.0189,0.0189,0.0203,0.0206,0.0206,0.0204,0.0208,0.0203,0.0201,0.0207,0.0188,0.0182,0.0173,0.0165,0.016,0.0177,0.0154,0.0168,0.0199,0.0191,0.0195,0.0197,0.0185,0.0186,0.0172,0.0172,0.0172,0,0.0192,0.0212,0.0206,0.0222,0.0229,0.0214,0.0232,0.023,0.0225,0.023,0.0215,0.0205,0.0187,0.0195,0.0197,0.0186,0.0175,0.0186,0.0197,0.0199,0.0201,0.0188,0.0189,0.0174,0.0174,0.0174,0.0174,0,0.0222,0.0236,0.0245,0.0263,0.0269,0.028,0.0279,0.0284,0.0278,0.0276,0.0279,0.0255,0.0249,0.0239,0.0224,0.0231,0.0216,0.0202,0.0189,0.0209,0.0192,0.0193,0.0178,0.0177,0.0176,0.0175,0,0,0.0237,0.0262,0.0265,0.0283,0.0292,0.0304,0.032,0.0334,0.0353,0.0337,0.0357,0.0334,0.0315,0.0307,0.0282,0.0274,0.0273,0.0247,0.0245,0.0239,0.0253,0.0242,0.024,0.0261,0.0262,0.0262,0.0235,0,0.0262,0.0303,0.0306,0.0345,0.0367,0.0363,0.0385,0.0393,0.0394,0.0408,0.038,0.0384,0.0343,0.0339,0.0324,0.0288,0.0276,0.0281,0.0231,0.0229,0.0221,0.0241,0.0264,0.0243,0.0235,0.0236,0.0236,0,0.0291,0.0318,0.036,0.0397,0.0407,0.0426,0.0461,0.0478,0.0488,0.0488,0.048,0.0453,0.0436,0.0396,0.0349,0.0354,0.0308,0.0276,0.0274,0.025,0.0219,0.0222,0.0243,0.0201,0.0236,0.0236,0.0236,0,0.0315,0.0355,0.0394,0.0405,0.0443,0.0462,0.0483,0.0503,0.0532,0.0536,0.0554,0.0518,0.051,0.0451,0.0374,0.0362,0.0321,0.0296,0.0242,0.024,0.0243,0.0241,0.0224,0.0263,0.0263,0.0263,0.0263,0,0.0344,0.0374,0.0409,0.0431,0.0484,0.0496,0.0551,0.0564,0.0595,0.0645,0.0596,0.062,0.0524,0.0483,0.0402,0.0327,0.034,0.0255,0.0237,0.0259,0.0258,0.0208,0.0175,0.0262,0.0262,0.0263,0.0263,0,0.0364,0.0384,0.0433,0.0479,0.0496,0.0536,0.0599,0.0643,0.0662,0.0724,0.0726,0.07,0.065,0.0549,0.0455,0.0374,0.0273,0.0261,0.0289,0.0275,0.0183,0.0152,0.0117,0.0105,0.0202,0.0202,0.0201,0,0.0378,0.0405,0.0467,0.0504,0.0526,0.0585,0.0634,0.0672,0.0727,0.0782,0.0819,0.0781,0.0778,0.0631,0.0478,0.0338,0.0276,0.0253,0.0233,0.019,0.0142,0.013,0.0121,0.0252,0.0252,0.0252,0.0253,0,0.0406,0.0426,0.0469,0.0543,0.0598,0.0669,0.0741,0.0795,0.0856,0.0915,0.0979,0.0977,0.0839,0.0713,0.0507,0.0399,0.024,0.025,0.0204,0.0183,0.0171,0.0147,0.025,0.0253,0.0253,0.0253,0.0253,0.0253,0.0425,0.0459,0.0516,0.0589,0.0656,0.0748,0.0819,0.0907,0.1009,0.1115,0.11,0.113,0.0936,0.0666,0.0508,0.0252,0.0252,0.0184,0.0149,0.0141,0.0133,0.0236,0.0218,0.0218,0.0218,0.0218,0.0217,0,0.0449,0.0493,0.056,0.0649,0.0729,0.0762,0.0889,0.0975,0.1109,0.1203,0.1267,0.1195,0.0971,0.0709,0.0367,0.0197,0.0138,0.0102,0.0096,0.0091,0.0185,0.0191,0.017,0.017,0.017,0.017,0.017,0.017,0.0463,0.0525,0.0562,0.0691,0.0761,0.0878,0.0958,0.1092,0.119,0.132,0.1349,0.135,0.1165,0.0593,0.0229,0.0129,0.0034,-0.0001,-0.0047,0.0019,0.0024,0.0029,0.0029,-0.0026,-0.0026,-0.01,-0.0101,-0.0102]}],[{"header":{"parameterUnit":"m.s-1","parameterCategory":2,"la1":30.2991,"la2":30.254,"lo1":-89.0895,"lo2":-89.0444,"dy":0.0017,"dx":0.0017,"nx":28,"ny":28,"refTime":"2025-07-10T09:00:00:Z","depth":"2","parameterNumber":2,"parameterNumberName":"U-component_of_CURRENTS"},"data":[0,0,0,0,0,0,0,0,0,0,0,0,0,0,0,0,0,0,0,0,0,0,0,0,0,0,0,0,0,0,0,0,0,0,0,0,0,0,0,0,0,0,0,0,0,0,0,0,0,0,0,0,0,0,0,0,0,0,0.1795,0.1795,0,0.1798,0.1798,0.1798,0.1793,0.1792,0.1792,0.1792,0.1793,0.1793,0.1793,0,0,0,0,0,0,0,0,0,0,0,0,0,0.1802,0.1801,0.1795,0.1795,0.1795,0.1798,0.1798,0.1798,0.1793,0.1792,0.1792,0.1792,0.1793,0.1793,0.1793,0,0,0,0,0,0,0,0,0,0,0,0,0,0.18,0.1801,0.1795,0.1793,0.1793,0.1798,0.1798,0.1798,0.1793,0.1792,0.1792,0.1792,0.1793,0.1793,0.1793,0.1797,0,0,0.1793,0.1793,0,0,0,0,0,0,0,0,0.18,0.18,0.1793,0.1793,0.1793,0.1795,0.18,0.1797,0.1793,0.1792,0.1792,0.1792,0.1794,0.1794,0.1794,0.1797,0.1797,0.1793,0.1793,0.1793,0.1793,0,0,0,0,0,0,0,0.18,0.18,0.1795,0.1794,0.1794,0.1799,0.1798,0.18,0.1793,0.1792,0.1792,0.1794,0.1794,0.1794,0.1794,0.1797,0.1793,0.1793,0.1793,0.1794,0.1841,0.1842,0,0,0,0,0,0,0.1801,0.18,0.1795,0.1795,0.1797,0.1798,0.1798,0.1794,0.1793,0.1793,0.1794,0.1793,0.1793,0.1793,0.1794,0.1827,0.1793,0.1794,0.1794,0.184,0.1842,0.1843,0,0,0,0,0,0,0.1801,0.18,0.1795,0.1799,0.1798,0.1798,0.1795,0.1794,0.1801,0.1794,0.1794,0.1801,0.1793,0.1793,0.1809,0.1826,0.1794,0.1794,0.1839,0.1841,0.1842,0.1876,0,0,0,0,0,0,0.1801,0.18,0.1802,0.1798,0.1798,0.18,0.1795,0.1794,0.1802,0.1802,0.1801,0.18,0.1793,0.1809,0.1809,0.1826,0.1794,0.1837,0.184,0.1842,0.1873,0.1878,0.1883,0,0,0,0,0,0.1801,0.1801,0.1802,0.1802,0.1799,0.1801,0.1801,0.18,0.1803,0.1806,0.1814,0.1801,0.1823,0.181,0.181,0.1827,0.1836,0.1839,0.1842,0.1871,0.1877,0.1883,0,0,0,0,0,0,0.1804,0.18,0.1801,0.18,0.1803,0.18,0.1805,0.1807,0.1815,0.1819,0.1813,0.1814,0.1833,0.1829,0.1815,0.1849,0.1829,0.1832,0.1851,0.1857,0.1862,0.186,0.1794,0,0,0,0,0,0.1807,0.1805,0.1805,0.1805,0.1808,0.181,0.1813,0.1814,0.1819,0.1823,0.1822,0.183,0.1844,0.1849,0.1854,0.1872,0.1875,0.1885,0.189,0.1894,0.1893,0.1934,0.1942,0.1852,0.1852,0.1852,0,0,0.1808,0.1807,0.1806,0.1806,0.1809,0.1815,0.1811,0.1819,0.1828,0.1822,0.1836,0.1845,0.1853,0.1873,0.1882,0.1872,0.1919,0.1897,0.1901,0.1898,0.1938,0.1946,0.1954,0.1853,0.1853,0.1853,0,0,0.181,0.181,0.1812,0.1815,0.1823,0.1826,0.1831,0.1835,0.184,0.186,0.1861,0.1883,0.1896,0.1906,0.1914,0.1951,0.1943,0.1954,0.1977,0.2017,0.2024,0.2031,0.2033,0.204,0.1958,0.1958,0.1958,0,0.1815,0.1812,0.1814,0.1819,0.1824,0.1832,0.1839,0.1848,0.1857,0.1874,0.187,0.1914,0.1914,0.195,0.196,0.1961,0.1971,0.1952,0.2023,0.203,0.2036,0.2037,0.2044,0.196,0.1959,0.1959,0.1959,0,0.1816,0.1819,0.1821,0.183,0.1839,0.1845,0.1858,0.1873,0.1888,0.1904,0.1945,0.1954,0.1982,0.1988,0.1984,0.2031,0.2018,0.2023,0.2006,0.2047,0.2045,0.2052,0.1962,0.1962,0.1961,0.1961,0,0,0.1809,0.1819,0.182,0.1823,0.1844,0.1846,0.1876,0.1904,0.1927,0.1954,0.1988,0.2019,0.2033,0.2043,0.2045,0.2074,0.2118,0.2067,0.2069,0.2065,0.2186,0.2104,0.2103,0.2143,0.2145,0.2146,0.2161,0,0.1808,0.1812,0.1824,0.1833,0.1837,0.1862,0.1885,0.1918,0.1949,0.1983,0.2021,0.2051,0.2052,0.2066,0.2101,0.2114,0.214,0.2112,0.215,0.215,0.207,0.211,0.1932,0.1924,0.2167,0.2168,0.2169,0,0.1799,0.1804,0.1811,0.183,0.1836,0.1849,0.1891,0.1915,0.1978,0.2008,0.2063,0.2086,0.2132,0.2124,0.2186,0.2171,0.2181,0.219,0.2191,0.2107,0.2081,0.1926,0.1927,0.218,0.2179,0.2178,0.2178,0,0.1776,0.1791,0.1794,0.1799,0.1829,0.1846,0.1868,0.1927,0.1961,0.2024,0.2066,0.2121,0.2158,0.2192,0.2214,0.2208,0.2271,0.2265,0.2201,0.2194,0.2043,0.202,0.2313,0.2313,0.2313,0.2313,0.2313,0,0.176,0.1759,0.1782,0.1781,0.1796,0.1827,0.1862,0.1898,0.1966,0.2012,0.2074,0.2117,0.2183,0.2226,0.2231,0.2233,0.2293,0.2206,0.2201,0.2047,0.2026,0.225,0.2243,0.2314,0.2314,0.2314,0.2313,0,0.1729,0.1743,0.1745,0.1772,0.1783,0.1794,0.1855,0.1882,0.1956,0.2017,0.2042,0.2137,0.2184,0.2228,0.2276,0.2252,0.2255,0.2241,0.2035,0.2006,0.2141,0.2136,0.2163,0.2161,0.2159,0.2157,0.2155,0,0.1712,0.171,0.173,0.1734,0.1745,0.1774,0.1796,0.1868,0.1903,0.2019,0.2041,0.2123,0.2153,0.219,0.2155,0.2139,0.2217,0.1964,0.1918,0.2137,0.2131,0.2128,0.2125,0.1727,0.1722,0.1718,0.1714,0,0.1683,0.1691,0.1693,0.17,0.1714,0.1733,0.177,0.1797,0.1883,0.1933,0.1989,0.2021,0.2061,0.196,0.195,0.192,0.1947,0.188,0.2185,0.1791,0.1727,0.1719,0.1731,0.1679,0.1682,0.1685,0.1687,0.1688,0.1662,0.1653,0.1657,0.1655,0.167,0.1672,0.1664,0.1708,0.1741,0.1782,0.1869,0.1849,0.1852,0.1735,0.1666,0.1606,0.1744,0.1659,0.1671,0.1687,0.1633,0.1569,0.1479,0.1481,0.1483,0.1485,0.1486,0,0.1625,0.1616,0.1612,0.1596,0.1577,0.1613,0.1626,0.1597,0.1585,0.1636,0.1656,0.1505,0.1427,0.1435,0.1276,0.1253,0.1245,0.1206,0.1183,0.1219,0.1251,0.1175,0.0899,0.0897,0.0896,0.0894,0,0,0.1608,0.1577,0.1562,0.1502,0.1493,0.1443,0.1432,0.1398,0.1398,0.135,0.1315,0.1405,0.141,0.1157,0.1102,0.0975,0.1099,0.0935,0.1406,0.1419,0.1449,0.151,0.1432,0,0,0,0,0]},{"header":{"parameterUnit":"m.s-1","parameterCategory":2,"la1":30.2991,"la2":30.254,"lo1":-89.0895,"lo2":-89.0444,"dy":0.0017,"dx":0.0017,"nx":28,"ny":28,"refTime":"2025-07-10T09:00:00:Z","depth":"2","parameterNumber":3,"parameterNumberName":"V-component_of_CURRENTS"},"data":[0,0,0,0,0,0,0,0,0,0,0,0,0,0,0,0,0,0,0,0,0,0,0,0,0,0,0,0,0,0,0,0,0,0,0,0,0,0,0,0,0,0,0,0,0,0,0,0,0,0,0,0,0,0,0,0,0,0,0.0189,0.0189,0,0.0174,0.0174,0.0174,0.0159,0.0159,0.0159,0.0159,0.0134,0.0133,0.0133,0,0,0,0,0,0,0,0,0,0,0,0,0,0.0179,0.0179,0.0189,0.0189,0.0189,0.0174,0.0174,0.0174,0.0159,0.0159,0.0159,0.0159,0.0134,0.0133,0.0133,0,0,0,0,0,0,0,0,0,0,0,0,0,0.0175,0.0179,0.0189,0.018,0.0179,0.0174,0.0174,0.0174,0.0159,0.0159,0.0159,0.0159,0.0134,0.0133,0.0133,0.0132,0,0,0.013,0.013,0,0,0,0,0,0,0,0,0.0175,0.0175,0.0182,0.0181,0.018,0.0169,0.0161,0.0159,0.016,0.0167,0.0159,0.0159,0.0145,0.0143,0.014,0.0131,0.013,0.013,0.013,0.0129,0.0129,0,0,0,0,0,0,0,0.0176,0.0176,0.0183,0.0182,0.0181,0.0168,0.0167,0.016,0.0157,0.0166,0.0165,0.0164,0.0144,0.0141,0.014,0.0129,0.013,0.0129,0.0129,0.0129,0.012,0.012,0,0,0,0,0,0,0.018,0.0176,0.0183,0.0182,0.0177,0.0168,0.0168,0.0172,0.0157,0.0155,0.0164,0.0163,0.0143,0.0141,0.0139,0.0149,0.0129,0.0129,0.0128,0.012,0.012,0.012,0,0,0,0,0,0,0.018,0.0181,0.0184,0.0179,0.0178,0.0169,0.0174,0.0172,0.0171,0.0156,0.0153,0.0166,0.0143,0.014,0.014,0.0147,0.0128,0.0127,0.0119,0.012,0.012,0.0161,0,0,0,0,0,0,0.018,0.0181,0.0186,0.0179,0.0179,0.0186,0.0174,0.0172,0.0171,0.017,0.0156,0.0153,0.0142,0.0141,0.0139,0.0146,0.0127,0.0119,0.0119,0.012,0.0159,0.0163,0.0165,0,0,0,0,0,0.018,0.0189,0.0186,0.0187,0.0186,0.0187,0.0186,0.0177,0.0171,0.0175,0.0167,0.0154,0.0142,0.0141,0.0138,0.0145,0.0119,0.0119,0.012,0.0158,0.0162,0.0165,0,0,0,0,0,0,0.0186,0.0189,0.0185,0.0194,0.0192,0.0185,0.0187,0.0181,0.0177,0.0175,0.016,0.0157,0.0158,0.0146,0.0145,0.0143,0.0127,0.0127,0.0157,0.016,0.0163,0.0175,0.0126,0,0,0,0,0,0.019,0.0198,0.0196,0.0203,0.0204,0.0196,0.0194,0.0189,0.0185,0.0183,0.0174,0.0163,0.0158,0.0155,0.0146,0.0149,0.0137,0.015,0.0153,0.0156,0.0163,0.0154,0.0157,0.0122,0.0122,0.0122,0,0,0.0193,0.0196,0.02,0.0205,0.0202,0.0212,0.0195,0.0196,0.0205,0.018,0.0189,0.0174,0.016,0.0162,0.0161,0.0154,0.0158,0.0156,0.0159,0.0164,0.0155,0.0158,0.0161,0.0122,0.0122,0.0122,0,0,0.0208,0.0208,0.0221,0.0223,0.0224,0.0222,0.0225,0.022,0.0218,0.0223,0.0207,0.0201,0.0193,0.0185,0.0181,0.0196,0.0174,0.0188,0.0216,0.0207,0.021,0.0213,0.0199,0.02,0.0191,0.0191,0.0191,0,0.0212,0.023,0.0224,0.0238,0.0244,0.023,0.0247,0.0245,0.024,0.0244,0.0231,0.0222,0.0206,0.0213,0.0215,0.0204,0.0193,0.0204,0.0212,0.0214,0.0216,0.0202,0.0202,0.0193,0.0193,0.0193,0.0193,0,0.0238,0.0251,0.0259,0.0276,0.0281,0.0291,0.029,0.0295,0.029,0.0287,0.029,0.0268,0.0263,0.0253,0.0239,0.0244,0.023,0.0217,0.0205,0.0222,0.0206,0.0206,0.0196,0.0195,0.0195,0.0194,0,0,0.0252,0.0274,0.0278,0.0295,0.0303,0.0314,0.0328,0.0342,0.0359,0.0343,0.0362,0.0341,0.0323,0.0316,0.0293,0.0283,0.028,0.0258,0.0256,0.0249,0.0258,0.0244,0.0242,0.0269,0.0269,0.0269,0.024,0,0.0275,0.0313,0.0316,0.0352,0.0373,0.0369,0.0389,0.0397,0.0398,0.041,0.0384,0.0387,0.0349,0.0345,0.033,0.0295,0.0282,0.0289,0.0238,0.0237,0.0226,0.0242,0.0249,0.0224,0.024,0.024,0.024,0,0.0302,0.0327,0.0366,0.0402,0.0411,0.0428,0.0462,0.0478,0.0485,0.0485,0.0477,0.0452,0.0434,0.0398,0.0349,0.0355,0.031,0.0279,0.0277,0.0252,0.0223,0.0209,0.0223,0.0239,0.0239,0.0239,0.0239,0,0.0324,0.0363,0.0399,0.0409,0.0445,0.0463,0.0483,0.0501,0.0529,0.0531,0.0548,0.0512,0.0504,0.0446,0.037,0.0361,0.0315,0.0294,0.0239,0.0237,0.0228,0.0225,0.0261,0.0261,0.0261,0.0261,0.0261,0,0.0352,0.0381,0.0413,0.0434,0.0484,0.0495,0.0548,0.056,0.0589,0.0634,0.0588,0.0607,0.0516,0.0474,0.0395,0.0319,0.0332,0.025,0.0233,0.0241,0.024,0.024,0.0238,0.026,0.026,0.026,0.026,0,0.0371,0.0389,0.0436,0.0479,0.0496,0.0534,0.0595,0.0638,0.0653,0.0709,0.0712,0.0683,0.0629,0.0531,0.0439,0.0362,0.0282,0.0249,0.0262,0.0247,0.0202,0.0203,0.0191,0.019,0.0189,0.0189,0.0189,0,0.0384,0.0409,0.0468,0.0503,0.0525,0.0582,0.0629,0.0666,0.0718,0.0762,0.0796,0.0754,0.0739,0.0592,0.0447,0.031,0.0286,0.0219,0.0202,0.0213,0.0197,0.0198,0.0199,0.0201,0.0201,0.0201,0.0201,0,0.0411,0.043,0.047,0.0541,0.0595,0.0665,0.0733,0.0784,0.084,0.0885,0.0931,0.0918,0.078,0.0642,0.0445,0.0346,0.0239,0.021,0.0226,0.0219,0.0221,0.0206,0.0207,0.0199,0.0199,0.0199,0.0199,0.02,0.043,0.0462,0.0515,0.0585,0.0651,0.0739,0.0806,0.0884,0.097,0.1045,0.1027,0.1009,0.0844,0.0595,0.0421,0.023,0.0246,0.017,0.0172,0.0173,0.0181,0.0182,0.0154,0.0154,0.0154,0.0153,0.0153,0,0.0453,0.0494,0.0557,0.0642,0.0719,0.0752,0.0872,0.0944,0.1051,0.1103,0.1136,0.0972,0.0811,0.0613,0.0341,0.0183,0.0165,0.0117,0.0135,0.0138,0.0141,0.0146,0.011,0.0109,0.0109,0.0108,0,0,0.0466,0.0524,0.0558,0.0681,0.0747,0.0859,0.0934,0.1036,0.1101,0.1158,0.1142,0.1107,0.0868,0.066,0.044,0.0278,0.0242,0.0237,0.0291,0.0342,0.0346,0.0191,0.0206,0,0,0,0,0]}],[{"header":{"parameterUnit":"m.s-1","parameterCategory":2,"la1":30.2991,"la2":30.254,"lo1":-89.0895,"lo2":-89.0444,"dy":0.0017,"dx":0.0017,"nx":28,"ny":28,"refTime":"2025-07-10T09:00:00:Z","depth":"4","parameterNumber":2,"parameterNumberName":"U-component_of_CURRENTS"},"data":[0,0,0,0,0,0,0,0,0,0,0,0,0,0,0,0,0,0,0,0,0,0,0,0,0,0,0,0,0,0,0,0,0,0,0,0,0,0,0,0,0,0,0,0,0,0,0,0,0,0,0,0,0,0,0,0,0,0,0.1079,0.1079,0,0.108,0.108,0.1079,0.1094,0.1095,0.1095,0.1096,0.1102,0.1102,0.1102,0,0,0,0,0,0,0,0,0,0,0,0,0,0.1089,0.1089,0.1079,0.1079,0.1079,0.108,0.108,0.1079,0.1094,0.1095,0.1096,0.1096,0.1102,0.1102,0.1102,0,0,0,0,0,0,0,0,0,0,0,0,0,0.1086,0.1089,0.1079,0.1087,0.1088,0.108,0.108,0.1079,0.1094,0.1095,0.1096,0.1096,0.1102,0.1102,0.1102,0.1084,0,0,0.11,0.11,0,0,0,0,0,0,0,0,0.1086,0.1085,0.1086,0.1087,0.1088,0.1089,0.1086,0.1082,0.1094,0.1091,0.1096,0.1097,0.1098,0.1098,0.1095,0.1084,0.1084,0.11,0.11,0.11,0.11,0,0,0,0,0,0,0,0.1086,0.1085,0.1078,0.1086,0.1087,0.1091,0.1091,0.1085,0.1089,0.1091,0.1092,0.1094,0.1099,0.1095,0.1095,0.1085,0.11,0.11,0.11,0.1099,0.1135,0.1137,0,0,0,0,0,0,0.1088,0.1085,0.1078,0.1078,0.109,0.1091,0.1091,0.1087,0.1089,0.1091,0.1094,0.1095,0.1096,0.1096,0.1096,0.1143,0.11,0.1099,0.1099,0.1134,0.1136,0.1137,0,0,0,0,0,0,0.1088,0.1087,0.1078,0.1083,0.1083,0.109,0.1085,0.1086,0.1108,0.1092,0.1093,0.1117,0.1096,0.1096,0.1115,0.1141,0.1099,0.1099,0.1133,0.1135,0.1136,0.1194,0,0,0,0,0,0,0.1088,0.1087,0.1099,0.1083,0.1082,0.1087,0.1085,0.1086,0.1107,0.1109,0.1112,0.1111,0.1097,0.1116,0.1115,0.1139,0.1098,0.1131,0.1134,0.1136,0.119,0.1197,0.1203,0,0,0,0,0,0.1088,0.1095,0.1099,0.1099,0.1093,0.1088,0.1088,0.1095,0.1108,0.1117,0.1126,0.1113,0.113,0.1116,0.1115,0.114,0.113,0.1133,0.1136,0.1187,0.1196,0.1203,0,0,0,0,0,0,0.1108,0.1096,0.1101,0.1105,0.1106,0.1091,0.1106,0.111,0.1123,0.1137,0.1124,0.1124,0.1151,0.1138,0.1124,0.1158,0.1129,0.1132,0.1169,0.1177,0.1184,0.1183,0.1098,0,0,0,0,0,0.1116,0.1121,0.111,0.1118,0.1121,0.112,0.1126,0.113,0.1133,0.1141,0.1143,0.115,0.1155,0.1162,0.1161,0.1177,0.1171,0.1194,0.1201,0.1206,0.1206,0.1222,0.1229,0.1146,0.1146,0.1146,0,0,0.1128,0.1124,0.1128,0.1124,0.1128,0.113,0.1126,0.1141,0.1152,0.1139,0.1167,0.1172,0.1165,0.1185,0.1196,0.1182,0.123,0.121,0.1215,0.1211,0.1225,0.1233,0.1241,0.1148,0.1148,0.1147,0,0,0.1143,0.115,0.1156,0.1156,0.1165,0.116,0.1171,0.1172,0.1185,0.1208,0.1205,0.1228,0.1236,0.1235,0.1235,0.1277,0.1263,0.1284,0.1317,0.1332,0.1339,0.1345,0.1358,0.1365,0.1287,0.1288,0.1288,0,0.1163,0.116,0.1159,0.1164,0.117,0.1177,0.1185,0.1193,0.1205,0.1224,0.1228,0.1261,0.1257,0.1279,0.1296,0.1292,0.1298,0.1287,0.1341,0.1346,0.1351,0.1363,0.137,0.1291,0.129,0.129,0.129,0,0.1168,0.1179,0.1185,0.119,0.1199,0.1209,0.1214,0.1237,0.1261,0.1274,0.1316,0.1316,0.1337,0.1343,0.1332,0.137,0.1363,0.1347,0.132,0.1363,0.1373,0.1379,0.1295,0.1294,0.1293,0.1292,0,0,0.1174,0.1186,0.1191,0.1197,0.1214,0.1214,0.1247,0.127,0.1297,0.133,0.1363,0.1388,0.1404,0.1405,0.14,0.1414,0.1459,0.1402,0.1401,0.1413,0.15,0.139,0.1386,0.1457,0.1459,0.1459,0.1497,0,0.1181,0.119,0.1198,0.1216,0.1219,0.1242,0.1265,0.1296,0.1328,0.1362,0.1392,0.1422,0.1422,0.1439,0.1457,0.1458,0.1476,0.1451,0.1458,0.1458,0.1353,0.1389,0.1463,0.1501,0.1502,0.1503,0.1504,0,0.1174,0.1181,0.1201,0.1221,0.1227,0.1246,0.1289,0.1311,0.1367,0.1397,0.1447,0.1465,0.1506,0.1489,0.1531,0.1519,0.1518,0.1514,0.1515,0.1392,0.1357,0.1446,0.1513,0.1513,0.1512,0.1511,0.1511,0,0.1156,0.1178,0.1195,0.1202,0.123,0.1258,0.1282,0.1335,0.1364,0.1427,0.1463,0.151,0.1544,0.1556,0.1566,0.1556,0.1596,0.1577,0.1477,0.147,0.1533,0.1526,0.1598,0.1597,0.1597,0.1597,0.1597,0,0.1137,0.1151,0.1193,0.1198,0.1226,0.1255,0.1299,0.1332,0.1391,0.1425,0.1485,0.1512,0.1565,0.1593,0.1586,0.1552,0.1619,0.1485,0.147,0.1558,0.1553,0.1537,0.153,0.1599,0.1598,0.1598,0.1598,0,0.1106,0.1135,0.1154,0.1199,0.1217,0.124,0.1304,0.1327,0.1398,0.1444,0.1469,0.1542,0.1573,0.1605,0.1624,0.157,0.1546,0.1514,0.1616,0.1607,0.1406,0.1401,0.1404,0.14,0.1397,0.1394,0.1392,0,0.1085,0.1096,0.1152,0.1167,0.1192,0.1236,0.1259,0.1325,0.1347,0.1442,0.1449,0.152,0.1552,0.1502,0.1539,0.1519,0.1493,0.1472,0.1424,0.1399,0.1386,0.1386,0.1385,0.1387,0.1386,0.1386,0.1385,0,0.1047,0.1084,0.1102,0.1135,0.1165,0.1184,0.1223,0.1233,0.1303,0.1386,0.1388,0.1393,0.1425,0.143,0.143,0.1409,0.1478,0.1439,0.1445,0.14,0.1379,0.1369,0.1372,0.1374,0.1376,0.1377,0.1377,0,0.1027,0.1032,0.1066,0.1081,0.1118,0.1108,0.1139,0.1148,0.1179,0.1275,0.1274,0.134,0.1413,0.1373,0.137,0.1345,0.1314,0.1251,0.1266,0.1279,0.1216,0.1171,0.109,0,0,0,0,0,0.0996,0.0987,0.1001,0.1003,0.1035,0.1051,0.1097,0.1127,0.1201,0.1166,0.1212,0.1227,0.1221,0.1256,0.1203,0.1311,0.1323,0.1241,0.126,0.1315,0.1328,0.1263,0,0,0,0,0,0,0.0971,0.0988,0.0977,0.0934,0.0922,0.0937,0.0964,0.1013,0.0992,0.1078,0.1083,0.1144,0.1162,0.1242,0.118,0.1188,0.1168,0.1283,0.1279,0.1308,0.1319,0.1329,0.1268,0,0,0,0,0]},{"header":{"parameterUnit":"m.s-1","parameterCategory":2,"la1":30.2991,"la2":30.254,"lo1":-89.0895,"lo2":-89.0444,"dy":0.0017,"dx":0.0017,"nx":28,"ny":28,"refTime":"2025-07-10T09:00:00:Z","depth":"4","parameterNumber":3,"parameterNumberName":"V-component_of_CURRENTS"},"data":[0,0,0,0,0,0,0,0,0,0,0,0,0,0,0,0,0,0,0,0,0,0,0,0,0,0,0,0,0,0,0,0,0,0,0,0,0,0,0,0,0,0,0,0,0,0,0,0,0,0,0,0,0,0,0,0,0,0,0.016,0.016,0,0.0152,0.0152,0.0152,0.0147,0.0147,0.0147,0.0147,0.0134,0.0134,0.0133,0,0,0,0,0,0,0,0,0,0,0,0,0,0.0151,0.0152,0.016,0.016,0.016,0.0152,0.0152,0.0152,0.0147,0.0147,0.0147,0.0147,0.0134,0.0134,0.0133,0,0,0,0,0,0,0,0,0,0,0,0,0,0.015,0.0152,0.016,0.0157,0.0156,0.0152,0.0152,0.0152,0.0147,0.0147,0.0147,0.0147,0.0134,0.0134,0.0133,0.013,0,0,0.0132,0.0132,0,0,0,0,0,0,0,0,0.015,0.015,0.0157,0.0157,0.0156,0.0151,0.0144,0.0144,0.0147,0.015,0.0147,0.0147,0.0139,0.0138,0.0137,0.013,0.0129,0.0132,0.0132,0.0131,0.0131,0,0,0,0,0,0,0,0.015,0.0151,0.0157,0.0157,0.0157,0.0149,0.0149,0.0144,0.0145,0.015,0.0149,0.0149,0.0139,0.0137,0.0136,0.0129,0.0132,0.0131,0.0131,0.0131,0.0128,0.0128,0,0,0,0,0,0,0.0153,0.0151,0.0157,0.0156,0.0154,0.0149,0.0149,0.0152,0.0145,0.0144,0.0149,0.0149,0.0138,0.0137,0.0136,0.0146,0.0131,0.0131,0.0131,0.0128,0.0128,0.0128,0,0,0,0,0,0,0.0153,0.0154,0.0157,0.0153,0.0153,0.0149,0.0153,0.0152,0.0154,0.0144,0.0143,0.0153,0.0138,0.0137,0.0139,0.0145,0.0131,0.013,0.0127,0.0128,0.0128,0.0158,0,0,0,0,0,0,0.0153,0.0154,0.0159,0.0154,0.0154,0.016,0.0153,0.0152,0.0154,0.0154,0.0147,0.0145,0.0138,0.0139,0.0138,0.0144,0.013,0.0127,0.0127,0.0128,0.0157,0.0159,0.0162,0,0,0,0,0,0.0153,0.016,0.0159,0.016,0.016,0.016,0.016,0.0156,0.0154,0.0158,0.0154,0.0146,0.0141,0.0139,0.0138,0.0144,0.0127,0.0127,0.0128,0.0156,0.0159,0.0161,0,0,0,0,0,0,0.0158,0.016,0.0159,0.0166,0.0165,0.016,0.0163,0.016,0.016,0.016,0.0151,0.0149,0.0152,0.0144,0.0142,0.0143,0.0132,0.0132,0.0153,0.0156,0.0159,0.0169,0.0129,0,0,0,0,0,0.0162,0.0169,0.0166,0.0173,0.0174,0.0169,0.0169,0.0167,0.0165,0.0165,0.0161,0.0155,0.0152,0.0151,0.0146,0.0149,0.0138,0.015,0.0153,0.0155,0.0162,0.0151,0.0154,0.013,0.013,0.013,0,0,0.0165,0.0167,0.0171,0.0175,0.0174,0.0181,0.017,0.0173,0.018,0.0163,0.0173,0.0164,0.0154,0.0157,0.0158,0.0152,0.0155,0.0156,0.0158,0.0163,0.0152,0.0154,0.0157,0.013,0.013,0.013,0,0,0.0177,0.0178,0.0189,0.0191,0.0192,0.0191,0.0194,0.0192,0.0192,0.0198,0.0188,0.0185,0.0181,0.0175,0.0172,0.0184,0.0168,0.018,0.0202,0.0192,0.0194,0.0196,0.0183,0.0183,0.0182,0.0182,0.0182,0,0.0181,0.0195,0.0191,0.0201,0.0208,0.0199,0.0212,0.0211,0.021,0.0214,0.0206,0.0203,0.0191,0.0197,0.0199,0.0191,0.0181,0.0193,0.0196,0.0197,0.0199,0.0185,0.0185,0.0184,0.0184,0.0184,0.0183,0,0.02,0.0212,0.0218,0.0231,0.0237,0.0246,0.0246,0.0251,0.025,0.0249,0.0254,0.0237,0.0236,0.0229,0.0218,0.0222,0.0211,0.02,0.019,0.0203,0.0188,0.0187,0.0186,0.0186,0.0185,0.0185,0,0,0.021,0.0229,0.0233,0.0247,0.0255,0.0264,0.0276,0.0288,0.0304,0.0294,0.0309,0.0295,0.0283,0.0279,0.0261,0.0251,0.0245,0.0232,0.023,0.0222,0.0222,0.0204,0.0201,0.0235,0.0235,0.0235,0.0207,0,0.0228,0.0257,0.0261,0.0291,0.0308,0.0308,0.0325,0.0332,0.0335,0.0346,0.0326,0.0332,0.0303,0.0303,0.0288,0.0258,0.0245,0.0254,0.0208,0.0207,0.0192,0.0201,0.0235,0.0206,0.0206,0.0206,0.0206,0,0.0247,0.0267,0.03,0.0331,0.0338,0.0355,0.0385,0.04,0.0407,0.0408,0.0404,0.0385,0.037,0.0342,0.0299,0.0305,0.0268,0.0241,0.0239,0.0213,0.0188,0.0191,0.0204,0.0205,0.0205,0.0205,0.0205,0,0.0261,0.0295,0.0325,0.0335,0.0366,0.0384,0.0404,0.0421,0.0445,0.0449,0.0462,0.0433,0.0428,0.0377,0.0313,0.0308,0.0262,0.0246,0.0194,0.0192,0.0203,0.0202,0.0215,0.0215,0.0216,0.0216,0.0216,0,0.0279,0.0305,0.0337,0.0355,0.04,0.0412,0.046,0.0471,0.0497,0.0531,0.0498,0.0508,0.0437,0.0398,0.0331,0.0262,0.0274,0.0202,0.0186,0.0216,0.0216,0.0202,0.0201,0.0215,0.0215,0.0215,0.0215,0,0.029,0.0309,0.0349,0.0391,0.0407,0.0442,0.0501,0.0537,0.0553,0.0594,0.0597,0.057,0.0517,0.0438,0.0357,0.0293,0.0222,0.0192,0.0232,0.0218,0.0154,0.0155,0.0136,0.0136,0.0135,0.0134,0.0134,0,0.0297,0.0318,0.0376,0.0408,0.043,0.0485,0.0527,0.0562,0.0601,0.0631,0.0651,0.0613,0.058,0.0455,0.0365,0.0237,0.0214,0.0171,0.0159,0.0161,0.0147,0.0149,0.015,0.0133,0.0133,0.0133,0.0132,0,0.0312,0.0334,0.0369,0.0433,0.0484,0.0545,0.0604,0.0635,0.068,0.0693,0.0692,0.0625,0.0566,0.0457,0.0358,0.0265,0.0195,0.0163,0.0164,0.0153,0.0156,0.0144,0.0146,0.013,0.013,0.0131,0.0131,0,0.0324,0.0351,0.0398,0.0457,0.0523,0.0587,0.0619,0.0664,0.07,0.0725,0.0722,0.0652,0.0614,0.0472,0.0382,0.0287,0.0257,0.0214,0.0211,0.0213,0.0236,0.0252,0.0247,0,0,0,0,0,0.0332,0.0364,0.0419,0.0485,0.0552,0.0593,0.0664,0.0693,0.0731,0.0733,0.0728,0.0668,0.0535,0.0481,0.0383,0.0362,0.0238,0.0243,0.0186,0.0117,0.012,0.0132,0,0,0,0,0,0,0.0338,0.0386,0.0415,0.0498,0.0547,0.0626,0.0674,0.0702,0.0703,0.0719,0.0652,0.0626,0.05,0.0588,0.0375,0.0348,0.0294,0.0186,0.0183,0.0115,0.0118,0.012,0.0133,0,0,0,0,0]}]]